TimeEDT,TemperatureF,Dew PointF,Humidity,Sea Level PressureIn,VisibilityMPH,Wind Direction,Wind SpeedMPH,Gust SpeedMPH,PrecipitationIn,Events,Conditions,WindDirDegrees,DateUTC
12:53 AM,73.9,69.1,85,30.01,10.0,Calm,Calm,-,N/A,,Clear,0,2013-08-30 04:53:00
1:53 AM,72.0,66.0,81,30.01,10.0,Calm,Calm,-,N/A,,Clear,0,2013-08-30 05:53:00
2:53 AM,70.0,64.9,84,30.00,10.0,Calm,Calm,-,N/A,,Clear,0,2013-08-30 06:53:00
3:53 AM,69.1,64.9,87,29.99,10.0,Calm,Calm,-,N/A,,Clear,0,2013-08-30 07:53:00
4:53 AM,68.0,64.0,87,29.98,10.0,Calm,Calm,-,N/A,,Clear,0,2013-08-30 08:53:00
5:53 AM,68.0,64.9,90,29.98,9.0,Calm,Calm,-,N/A,,Clear,0,2013-08-30 09:53:00
6:53 AM,68.0,64.9,90,29.96,7.0,Calm,Calm,-,N/A,,Clear,0,2013-08-30 10:53:00
7:53 AM,71.1,68.0,90,29.96,6.0,Calm,Calm,-,N/A,,Clear,0,2013-08-30 11:53:00
8:53 AM,73.0,68.0,84,29.96,6.0,WSW,5.8,-,N/A,,Haze,240,2013-08-30 12:53:00
9:53 AM,77.0,68.0,74,29.94,8.0,West,6.9,-,N/A,,Clear,260,2013-08-30 13:53:00
10:53 AM,80.1,66.0,62,29.92,10.0,SW,10.4,-,N/A,,Clear,230,2013-08-30 14:53:00
11:53 AM,82.9,66.9,58,29.91,10.0,WSW,11.5,-,N/A,,Clear,250,2013-08-30 15:53:00
12:53 PM,84.0,64.9,53,29.89,10.0,WSW,9.2,19.6,N/A,,Partly Cloudy,240,2013-08-30 16:53:00
1:53 PM,87.1,64.9,48,29.88,10.0,SW,13.8,20.7,N/A,,Partly Cloudy,230,2013-08-30 17:53:00
2:53 PM,87.1,64.9,48,29.85,10.0,WSW,15.0,-,N/A,,Partly Cloudy,250,2013-08-30 18:53:00
3:53 PM,87.1,66.0,49,29.80,10.0,WSW,17.3,26.5,N/A,,Clear,240,2013-08-30 19:53:00
4:53 PM,87.1,66.0,49,29.79,10.0,SW,16.1,26.5,N/A,,Clear,230,2013-08-30 20:53:00
5:53 PM,87.1,66.0,49,29.77,10.0,SW,16.1,24.2,N/A,,Partly Cloudy,230,2013-08-30 21:53:00
6:53 PM,86.0,66.0,51,29.77,10.0,WSW,13.8,-,N/A,,Clear,240,2013-08-30 22:53:00
7:53 PM,84.9,66.0,53,29.76,10.0,WSW,10.4,-,N/A,,Clear,240,2013-08-30 23:53:00
8:53 PM,84.0,66.0,55,29.78,10.0,SW,5.8,-,N/A,,Mostly Cloudy,220,2013-08-31 00:53:00
9:33 PM,82.4,66.2,58,29.78,10.0,SSW,10.4,-,N/A,Thunderstorm,Partly Cloudy,210,2013-08-31 01:33:00
9:53 PM,82.9,66.9,58,29.76,10.0,SSW,6.9,-,N/A,Thunderstorm,Mostly Cloudy,210,2013-08-31 01:53:00
10:33 PM,73.4,71.6,94,29.81,1.8,North,24.2,32.2,0.27,Rain-Thunderstorm,Heavy Thunderstorms and Rain,10,2013-08-31 02:33:00
10:42 PM,71.6,69.8,94,29.84,0.8,NNW,13.8,31.1,0.72,Rain-Thunderstorm,Heavy Thunderstorms and Rain,340,2013-08-31 02:42:00
10:45 PM,71.6,68.0,88,29.84,1.0,NW,11.5,31.1,0.82,Rain-Thunderstorm,Heavy Thunderstorms and Rain,310,2013-08-31 02:45:00
10:53 PM,72.0,68.0,87,29.83,1.0,West,20.7,26.5,1.12,Rain-Thunderstorm,Heavy Thunderstorms and Rain,260,2013-08-31 02:53:00
11:12 PM,69.8,64.4,83,29.81,3.0,SW,15.0,-,0.48,Rain-Thunderstorm,Heavy Thunderstorms and Rain,230,2013-08-31 03:12:00
11:25 PM,69.8,64.4,83,29.79,10.0,SW,13.8,-,0.49,Rain-Thunderstorm,Light Thunderstorms and Rain,230,2013-08-31 03:25:00
11:53 PM,71.1,68.0,90,29.78,2.5,WSW,11.5,21.9,0.76,Rain-Thunderstorm,Heavy Thunderstorms and Rain,240,2013-08-31 03:53:00